This is the latest recevied weather packets stored in our database for station/object DB0FN-10. If no packets are shown the sender has not sent any weather packets the latest 10 day(s).
| Time | Temp. | Humidity | Pressure | Rain* | Wind** | Luminosity | Snow |
|---|---|---|---|---|---|---|---|
| 1777603561 | 11.67° C | 27% | 1026.9 hPa | - | - | - | - |
| 1777602661 | 11.67° C | 27% | 1027 hPa | - | - | - | - |
| 1777601761 | 11.67° C | 26% | 1027.1 hPa | - | - | - | - |
| 1777600861 | 11.67° C | 26% | 1026.9 hPa | - | - | - | - |
| 1777599961 | 11.67° C | 26% | 1026.9 hPa | - | - | - | - |
| 1777599061 | 11.11° C | 26% | 1026.8 hPa | - | - | - | - |
| 1777598161 | 11.11° C | 27% | 1026.7 hPa | - | - | - | - |
| 1777597261 | 11.11° C | 26% | 1026.9 hPa | - | - | - | - |
| 1777596361 | 11.67° C | 25% | 1026.9 hPa | - | - | - | - |
| 1777595461 | 11.67° C | 25% | 1026.7 hPa | - | - | - | - |
| 1777594561 | 11.67° C | 25% | 1026.8 hPa | - | - | - | - |
| 1777593661 | 11.67° C | 25% | 1026.8 hPa | - | - | - | - |
| 1777592761 | 12.22° C | 26% | 1026.7 hPa | - | - | - | - |
| 1777591860 | 11.67° C | 27% | 1026.7 hPa | - | - | - | - |
| 1777590960 | 11.67° C | 26% | 1026.8 hPa | - | - | - | - |
| 1777590060 | 12.22° C | 26% | 1026.6 hPa | - | - | - | - |
| 1777589160 | 11.67° C | 26% | 1026.6 hPa | - | - | - | - |
| 1777588260 | 11.67° C | 27% | 1026.5 hPa | - | - | - | - |
| 1777587360 | 11.67° C | 26% | 1026.5 hPa | - | - | - | - |
| 1777586460 | 12.22° C | 26% | 1026.7 hPa | - | - | - | - |
| 1777585560 | 12.22° C | 25% | 1026.7 hPa | - | - | - | - |
| 1777584660 | 12.78° C | 25% | 1026.5 hPa | - | - | - | - |
| 1777583760 | 12.22° C | 25% | 1026.5 hPa | - | - | - | - |
| 1777582860 | 12.22° C | 25% | 1026.4 hPa | - | - | - | - |
| 1777581960 | 12.22° C | 25% | 1026.4 hPa | - | - | - | - |
* Rain since midnight (hover to see other rain measurements)
** Current wind speed in m/s (hover to see current wind gust speed)